Location: Rounton
(54.4000°N, 1.3500°W)
Time: 23:00:55
(UTC+00:00)

A-11 Canister half - Visible Passes

Search period start: 29 November 2021 00:00
Search period end: 09 December 2021 00:00
Orbit: 1524 x 1684 km, 47.3° (Epoch: 29 November)

Date Brightness Start Highest point End Pass type
(mag) Time Alt. Az. Time Alt. Az. Time Alt. Az.
29 Nov 11.2 01:07:19 10° E 01:07:19 10° E 01:07:30 10° E visible
29 Nov 9.9 03:05:38 38° SE 03:05:38 38° SE 03:14:14 10° E visible
29 Nov 9.4 05:03:56 29° SW 05:09:20 57° S 05:18:49 10° E visible
29 Nov 9.7 07:04:01 10° W 07:13:34 52° SSW 07:22:48 10° SE visible
30 Nov 10.0 02:45:18 35° SE 02:45:18 35° SE 02:52:32 10° E visible
30 Nov 9.4 04:43:36 37° SW 04:47:41 56° S 04:57:11 10° E visible
30 Nov 9.6 06:42:19 10° W 06:51:55 53° SSW 07:01:12 10° ESE visible
01 Dec 10.2 02:24:56 31° ESE 02:24:56 31° ESE 02:30:52 10° E visible
01 Dec 9.4 04:23:14 45° SW 04:26:01 56° S 04:35:32 10° E visible
01 Dec 9.5 06:21:33 13° W 06:30:16 54° SSW 06:39:35 10° ESE visible
02 Dec 10.5 02:04:33 26° ESE 02:04:33 26° ESE 02:09:10 10° E visible
02 Dec 9.3 04:02:51 51° SSW 04:04:21 55° SSE 04:13:53 10° E visible
02 Dec 9.5 06:01:09 19° W 06:08:37 55° SSW 06:17:59 10° ESE visible
03 Dec 10.7 01:44:08 21° E 01:44:08 21° E 01:47:28 10° E visible
03 Dec 9.3 03:42:26 55° S 03:42:41 55° SSE 03:52:14 10° E visible
03 Dec 9.4 05:40:44 24° WSW 05:46:57 55° SSW 05:56:22 10° ESE visible
04 Dec 10.9 01:23:43 17° E 01:23:43 17° E 01:25:46 10° E visible
04 Dec 9.4 03:22:01 53° SSE 03:22:01 53° SSE 03:30:35 10° E visible
04 Dec 9.4 05:20:18 31° WSW 05:25:18 56° S 05:34:46 10° ESE visible
04 Dec 10.0 07:20:25 10° W 07:29:05 35° SW 07:37:29 10° SSE visible
05 Dec 11.1 01:03:16 12° E 01:03:16 12° E 01:04:04 10° E visible
05 Dec 9.7 03:01:34 46° SE 03:01:34 46° SE 03:08:55 10° E visible
05 Dec 9.3 04:59:52 39° WSW 05:03:38 56° S 05:13:09 10° ESE visible
05 Dec 10.0 06:58:41 10° W 07:07:27 36° SSW 07:15:59 10° SSE visible
06 Dec 9.9 02:41:08 39° ESE 02:41:08 39° ESE 02:47:16 10° E visible
06 Dec 9.3 04:39:26 47° SW 04:41:58 57° S 04:51:31 10° ESE visible
06 Dec 9.9 06:37:43 12° W 06:45:50 37° SSW 06:54:28 10° SSE visible
07 Dec 10.2 02:20:41 32° ESE 02:20:41 32° ESE 02:25:36 10° E visible
07 Dec 9.2 04:18:59 54° SW 04:20:18 57° S 04:29:53 10° ESE visible
07 Dec 9.8 06:17:17 17° W 06:24:14 39° SSW 06:32:56 10° SSE visible
08 Dec 10.5 02:00:15 25° E 02:00:15 25° E 02:03:56 10° E visible
08 Dec 9.2 03:58:33 58° S 03:58:39 58° S 04:08:16 10° ESE visible
08 Dec 9.7 05:56:51 22° W 06:02:36 40° SSW 06:11:25 10° SE visible
